This is the latest recevied weather packets stored in our database for station/object KC2G. If no packets are shown the sender has not sent any weather packets the latest 1 day(s).
| Time | Temp. | Humidity | Pressure | Rain* | Wind** | Luminosity | Snow |
|---|---|---|---|---|---|---|---|
| 1778085955 | 17.22° C | 94% | 1008 hPa | 1.78 mm | 0 m/s | - | - |
| 1778084155 | 18.33° C | 84% | 1008.6 hPa | 0.25 mm | 0 m/s | - | - |
| 1778083255 | 19.44° C | 81% | 1008.6 hPa | 0.25 mm | 0.45 m/s, 135° | - | - |
| 1778082355 | 19.44° C | 77% | 1008.3 hPa | 0.25 mm | 0.45 m/s, 173° | - | - |
| 1778080461 | 20° C | 72% | 1008.6 hPa | 0 mm | 0.45 m/s, 208° | - | - |
| 1778076955 | 19.44° C | 75% | 1008.6 hPa | 0 mm | 0.45 m/s, 107° | - | - |
| 1778076055 | 19.44° C | 75% | 1008.8 hPa | 0 mm | 0.89 m/s, 166° | - | - |
| 1778075155 | 19.44° C | 75% | 1008.9 hPa | 0 mm | 0.45 m/s, 220° | - | - |
| 1778074255 | 18.89° C | 76% | 1008.6 hPa | 0 mm | 0.45 m/s, 166° | - | - |
| 1778067955 | 18.89° C | 79% | 1009 hPa | 0 mm | 0.89 m/s, 149° | - | - |
| 1778066155 | 17.78° C | 82% | 1009 hPa | 0 mm | 0.45 m/s, 112° | - | - |
| 1778065255 | 17.22° C | 84% | 1008.9 hPa | 0 mm | 0.45 m/s, 92° | - | - |
| 1778064355 | 17.22° C | 87% | 1009.1 hPa | 0 mm | 0 m/s | - | - |
| 1778062554 | 16.11° C | 90% | 1008.9 hPa | 0 mm | 0 m/s | - | - |
| 1778059344 | 16.67° C | 87% | 1008.8 hPa | 0 mm | 0 m/s | - | - |
| 1778058955 | 16.11° C | 88% | 1008.7 hPa | 0 mm | 0 m/s | - | - |
| 1778057156 | 16.67° C | 86% | 1008.8 hPa | 0 mm | 0.45 m/s, 70° | - | - |
| 1778056255 | 17.22° C | 84% | 1008.8 hPa | 0 mm | 0 m/s | - | - |
| 1778055355 | 17.22° C | 83% | 1008.8 hPa | 0 mm | 0 m/s | - | - |
| 1778054455 | 17.22° C | 81% | 1008.8 hPa | 0 mm | 0 m/s | - | - |
| 1778053555 | 17.78° C | 80% | 1008.8 hPa | 0 mm | 0 m/s | - | - |
| 1778052655 | 17.78° C | 77% | 1008.7 hPa | 0 mm | 0 m/s | - | - |
| 1778049955 | 18.89° C | 73% | 1008.8 hPa | 0 mm | 0.45 m/s, 138° | - | - |
| 1778047255 | 18.89° C | 71% | 1008.7 hPa | 0 mm | 0.45 m/s, 210° | - | - |
| 1778045896 | 19.44° C | 66% | 1009 hPa | 0 mm | 0.45 m/s, 131° | - | - |
* Rain latest hour (hover to see other rain measurements)
** Current wind speed in m/s (hover to see current wind gust speed)